Temperature
16 16 17 17 17 17 17 17 17 17 17 17 17 17 17 17 18 18 18 18 18 18 18 18 18 18 18 18 18 18 18 18 18 18 18 18 18 18 18 18 18 17 18
16 16 17 17 17 17 17 17 17 17 17 17 17 17 17 17 17 17 17 18 18 18 18 18 18 18 18 18 18 18 18 18 18 18 18 18 18 18 18 18 18 18 18
16 16 16 17 17 17 17 17 17 17 17 17 17 17 17 17 17 17 17 17 17 18 18 18 18 18 18 18 18 18 18 18 18 18 17 17 17 18 18 18 18 18 18
16 16 16 17 17 17 17 17 17 17 17 17 17 17 17 17 17 17 17 17 17 17 17 17 18 18 18 17 17 17 18 18 18 17 17 17 17 18 18 18 18 18 17
16 16 16 17 17 17 17 17 17 17 17 17 17 17 17 17 17 17 17 17 17 17 17 17 17 17 17 17 17 17 17 17 17 17 17 17 17 17 17 17 17 17 17
16 16 16 16 17 17 17 17 17 16 17 17 17 17 17 17 17 17 17 17 17 17 17 17 17 17 17 17 17 17 17 17 17 17 17 17 17 17 17 17 17 17 17
16 16 16 16 16 16 16 16 16 17 17 17 17 17 17 17 17 17 17 17 17 17 17 17 17 17 17 17 17 17 17 17 16 17 16 16 17 17 17 17 17 17 17
16 16 16 16 16 16 16 16 16 16 16 16 16 16 16 16 17 17 16 16 17 17 17 17 17 17 17 17 17 17 17 17 16 16 16 16 17 17 17 17 17 17 17
16 16 16 16 16 16 16 16 16 16 16 16 16 16 16 16 16 16 16 16 16 16 16 16 17 17 17 17 17 17 17 17 16 16 16 16 17 17 17 17 17 17 17
16 16 16 16 16 16 16 16 16 16 16 16 16 16 16 16 16 16 16 16 16 16 16 16 16 16 16 16 16 16 16 16 16 16 16 16 17 17 17 17 17 17 17
16 16 16 16 16 15 15 16 16 16 16 16 16 16 16 15 15 15 16 16 16 16 16 16 16 16 16 16 16 16 16 16 16 16 16 16 16 17 17 17 17 16 16
16 16 16 16 15 15 15 15 15 15 15 15 15 15 15 15 15 15 16 16 16 16 16 16 16 16 16 15 16 16 16 16 16 16 16 16 16 16 16 16 16 16 16
16 16 16 16 16 15 15 15 15 15 15 15 15 15 15 15 15 15 15 15 15 15 15 15 15 15 15 15 15 15 15 15 15 15 16 16 16 16 16 16 16 16 16
16 16 16 16 16 15 15 15 15 15 15 15 15 15 15 15 15 15 15 15 15 15 15 15 15 15 15 15 15 15 15 15 15 15 15 16 16 16 16 16 16 16 16
16 16 16 16 15 15 15 15 15 15 15 15 15 15 15 15 15 15 15 15 15 15 15 15 15 15 15 15 15 15 15 15 15 15 15 15 15 15 15 15 15 15 15
17 16 16 16 15 15 15 15 15 15 15 15 15 14 14 14 15 14 14 14 14 14 14 14 14 15 15 15 15 15 15 15 15 15 15 15 15 15 15 15 15 15 15
17 16 16 16 15 15 15 15 15 15 15 15 15 14 14 14 14 14 14 14 14 14 14 14 14 14 14 14 14 14 14 14 14 14 14 14 14 15 15 15 15 15 15
17 16 16 16 16 15 15 15 15 15 15 14 14 14 14 14 14 14 14 14 14 14 14 14 14 14 14 14 14 14 14 14 14 14 14 14 14 14 14 15 15 15 15
17 16 16 16 16 15 15 15 15 15 14 14 14 14 14 14 14 14 14 14 14 14 14 14 14 14 14 14 14 14 14 14 14 14 14 14 14 14 14 14 14 15 15
17 16 16 16 16 15 15 15 15 14 14 14 14 14 14 14 14 14 13 13 13 13 13 13 13 13 13 13 14 13 13 13 13 13 13 14 14 14 14 14 14 14 14
16 16 16 16 16 15 15 15 15 14 14 14 14 14 14 13 13 13 13 13 13 13 13 13 13 13 13 13 13 13 13 13 13 13 13 13 13 13 13 13 13 13 13
16 16 16 16 16 15 15 15 14 14 14 14 14 14 13 13 13 13 13 13 13 13 13 13 13 13 13 13 13 13 14 13 13 13 13 13 13 13 13 13 13 13 13
17 17 16 16 16 15 15 15 15 14 14 14 14 14 13 13 13 13 13 13 13 12 12 12 12 12 12 12 12 13 13 14 13 12 12 12 12 12 12 12 12 13 12
17 16 16 16 16 15 15 15 14 14 14 14 14 13 13 13 13 13 13 12 12 12 12 12 12 12 12 12 12 12 12 12 13 12 12 12 12 12 12 12 12 12 12
17 16 16 16 15 15 15 15 14 14 14 14 14 13 13 13 13 13 12 12 12 12 12 12 12 12 12 12 12 12 12 12 12 12 12 12 12 12 11 11 11 11 11
17 16 16 16 15 15 15 15 14 14 14 14 13 13 13 13 13 12 12 12 12 12 12 12 12 12 11 11 11 11 12 12 12 12 12 12 11 11 11 11 11 11 11
Wind_Speed
4 5 7 7 8 9 9 9 9 10 11 11 11 11 11 10 10 11 11 11 11 11 11 10 10 9 9 9 9 9 9 8 8 8 8 7 7 7 6 4 4 6 7
3 5 7 7 8 8 9 10 10 10 11 11 11 11 11 10 10 10 10 11 11 11 10 10 9 9 9 9 8 9 9 8 8 7 7 7 7 7 6 5 5 6 6
4 6 7 8 8 9 9 10 11 11 11 11 11 11 11 10 10 10 10 10 10 10 10 10 9 8 8 9 9 9 8 8 7 5 3 6 7 7 6 6 6 7 7
5 6 8 8 8 9 9 10 10 11 11 11 12 11 11 11 10 10 10 10 9 9 10 10 10 9 9 9 9 9 8 8 6 2 3 5 6 8 6 6 6 6 6
6 7 9 8 9 9 9 11 11 11 11 11 11 11 11 10 10 10 10 9 9 9 9 10 11 11 10 10 10 9 8 7 4 3 6 5 6 7 6 6 6 6 6
6 7 9 8 9 10 10 10 10 10 10 10 10 10 10 9 10 10 9 9 9 9 9 10 10 10 10 9 9 8 7 5 2 6 5 5 6 7 6 6 5 6 6
6 7 8 9 9 9 10 10 10 10 10 10 10 10 10 10 9 9 9 9 9 9 9 9 9 9 9 9 9 8 7 5 5 6 5 6 8 7 6 6 6 6 6
6 6 8 9 9 9 10 10 10 10 10 10 10 10 10 10 10 9 9 9 9 9 9 9 8 9 9 9 9 8 7 5 5 5 6 7 8 7 6 6 5 5 6
6 6 6 7 8 9 10 10 10 10 11 10 10 10 10 9 9 9 9 9 9 9 9 9 9 9 9 8 8 8 7 6 4 4 5 6 7 6 6 6 6 6 6
6 5 5 6 6 7 9 10 10 10 10 10 10 10 8 8 8 8 9 10 9 9 9 9 10 10 9 9 8 7 4 2 5 4 5 7 7 6 6 6 6 6 5
5 5 4 5 5 6 7 8 7 8 8 6 8 7 5 6 7 7 10 10 9 9 9 10 9 9 8 9 8 5 2 4 5 5 7 8 7 6 6 6 6 6 6
5 4 4 4 4 5 5 5 5 6 6 6 6 6 5 6 6 6 9 9 9 9 9 9 7 5 3 5 6 2 4 5 5 6 8 8 7 7 7 6 6 6 6
5 5 4 4 4 4 4 4 4 4 5 5 5 6 5 5 5 4 4 5 6 6 6 6 4 5 5 5 4 4 5 5 6 7 9 9 8 8 7 6 5 6 6
5 5 4 4 4 4 4 4 3 3 3 4 4 5 5 4 4 4 4 4 4 4 4 4 4 5 5 5 5 5 5 5 6 6 10 11 10 9 9 8 7 6 6
5 5 4 4 3 3 3 3 3 3 3 4 4 4 5 4 4 4 4 4 4 4 3 3 4 5 5 5 5 5 6 6 6 6 8 12 11 10 10 9 8 8 6
6 5 5 4 4 3 3 2 3 3 3 3 4 4 4 4 4 3 4 4 4 3 4 3 4 4 4 4 5 5 5 6 6 6 6 8 10 10 9 9 8 7 7
6 6 5 4 3 3 3 3 3 2 3 3 3 3 4 4 4 3 3 3 3 3 3 3 4 3 3 3 4 4 5 5 5 6 5 5 6 9 9 9 8 7 6
6 6 6 4 4 3 3 3 2 2 3 3 3 3 3 4 4 4 3 3 3 3 2 2 2 2 3 3 3 3 3 4 5 5 5 5 5 5 7 9 9 7 6
6 6 6 5 5 4 4 3 3 3 2 2 2 2 3 3 3 3 2 2 2 2 2 2 2 2 3 3 3 3 3 3 3 4 5 5 6 5 5 6 7 8 7
6 6 6 6 5 5 4 3 3 2 2 2 2 2 3 2 3 3 2 2 2 2 2 2 2 2 2 2 2 3 2 2 3 3 4 4 5 5 5 5 4 6 8
7 7 7 6 6 5 4 3 2 2 2 1 2 2 2 2 2 2 1 1 1 1 2 2 2 2 2 1 1 1 2 2 2 2 3 3 4 5 5 5 5 5 5
8 8 8 7 6 5 3 3 2 2 2 1 1 1 1 1 1 1 1 1 1 1 2 2 1 1 1 1 1 1 1 2 1 2 2 2 3 3 4 5 5 5 5
9 9 7 8 7 6 5 3 3 3 2 2 2 1 1 1 1 0 1 1 0 0 1 1 0 0 0 0 1 2 1 0 0 1 1 2 3 3 3 3 4 4 5
9 8 8 8 7 6 6 5 5 3 3 2 2 2 1 1 1 1 1 0 1 0 1 1 1 1 1 1 1 1 2 1 1 1 1 1 2 3 3 3 3 4 4
9 8 8 8 7 7 6 6 5 4 3 2 2 2 1 1 1 1 1 1 0 1 1 1 1 1 0 1 1 1 1 1 3 2 2 1 1 1 2 3 2 3 3
9 8 8 8 8 7 7 7 6 5 4 4 3 2 2 1 1 1 0 1 1 1 1 1 0 0 1 1 1 1 1 2 2 2 2 2 2 2 2 2 2 2 2
Wind_Direction
39 40 44 41 55 59 67 73 72 73 75 78 80 79 78 77 76 78 79 79 80 79 79 79 81 86 89 91 91 91 90 91 93 99 105 107 108 108 105 111 131 115 105
58 60 57 46 64 68 68 73 74 74 75 77 77 77 77 77 77 77 78 79 79 78 78 77 76 81 87 90 92 93 88 85 87 93 106 111 107 106 107 99 81 91 104
78 71 70 59 68 71 69 73 74 73 75 75 75 76 76 75 74 74 75 77 77 77 76 75 75 80 82 87 87 90 87 83 82 88 116 108 104 100 100 99 99 104 103
81 75 67 61 68 74 75 74 73 73 74 76 74 74 73 71 70 70 72 75 77 76 73 73 73 85 83 84 83 83 84 79 76 91 92 85 94 95 98 100 103 107 105
86 79 73 62 69 73 78 76 72 71 71 72 71 70 68 68 69 68 68 71 74 74 74 74 74 80 81 80 80 78 76 77 81 71 71 72 82 91 93 97 105 106 106
93 84 78 64 69 70 75 77 76 73 72 72 72 71 70 69 69 68 68 68 73 73 74 75 77 79 80 80 79 76 69 66 85 71 70 72 82 91 92 91 94 103 104
94 86 85 71 69 70 73 77 79 78 75 72 70 70 70 69 68 70 70 69 70 72 74 73 74 78 80 78 76 71 65 38 62 71 69 70 73 76 87 94 95 96 94
98 92 91 85 74 73 75 76 75 75 74 71 70 69 68 66 66 67 67 71 73 74 75 73 72 77 79 75 73 65 51 11 70 68 69 70 68 69 76 85 92 97 97
102 96 90 94 95 89 79 75 75 72 71 70 71 70 69 67 65 65 66 67 71 74 75 75 76 78 79 75 73 66 53 22 41 59 68 67 67 68 72 75 85 96 97
108 97 89 87 87 92 92 81 75 73 71 72 71 69 71 80 77 70 73 67 67 71 75 77 77 77 77 75 72 66 54 18 44 54 61 67 62 66 73 75 78 91 96
118 108 99 92 88 84 86 93 90 87 81 86 84 77 73 73 74 77 65 64 65 68 72 75 78 79 84 85 76 67 45 49 52 52 57 56 55 63 70 73 75 84 93
133 120 109 98 93 90 86 92 84 82 81 70 68 67 64 65 67 71 82 73 72 75 81 78 82 92 84 87 93 95 63 53 50 62 65 58 57 64 70 71 75 77 86
138 129 122 108 102 95 93 88 81 75 76 74 66 64 61 66 75 71 79 89 84 84 81 87 89 75 72 68 62 62 56 48 46 54 63 61 60 61 62 66 77 79 82
145 136 129 123 114 102 94 88 85 80 75 73 66 59 61 61 62 65 69 65 67 69 71 73 72 72 69 69 65 60 55 52 51 52 59 59 59 61 58 57 67 74 75
151 147 137 133 124 112 98 88 87 78 73 79 71 61 60 60 63 66 69 66 62 68 75 71 71 69 64 59 57 55 51 51 52 52 61 62 56 57 56 54 56 61 66
163 158 147 145 136 128 115 105 86 81 83 76 73 64 61 62 59 55 61 60 61 64 67 70 72 65 64 61 54 52 51 49 51 51 52 65 66 59 53 51 53 54 59
167 163 155 157 151 139 120 99 87 82 81 80 74 65 63 56 57 58 54 56 58 61 66 70 72 69 67 67 60 53 53 48 48 48 47 43 57 66 56 47 44 50 55
173 169 161 160 159 145 131 120 105 90 81 80 74 62 60 57 55 59 56 52 53 61 66 68 69 70 65 55 50 48 52 56 49 42 48 51 43 43 59 53 44 44 49
179 174 168 164 159 149 138 129 109 97 89 85 75 59 51 53 51 63 58 49 52 59 67 66 77 70 70 62 55 49 43 47 47 43 45 46 49 41 41 58 57 51 47
182 178 172 165 162 148 144 137 123 112 102 88 75 62 47 45 49 60 63 57 56 63 59 59 72 69 69 70 61 56 52 53 52 49 41 43 44 38 32 32 39 63 59
184 184 178 174 170 162 160 165 159 156 145 120 81 55 58 43 45 59 55 59 54 65 64 67 71 86 81 72 85 74 89 82 59 60 40 31 42 36 34 38 33 33 57
188 190 188 184 180 176 177 178 172 162 153 125 111 86 52 40 41 57 73 84 90 81 85 79 87 82 69 12 326 286 207 172 101 51 38 29 26 33 31 35 34 33 32
192 195 194 190 186 181 173 164 152 146 151 153 157 137 65 42 56 72 78 88 96 131 132 130 146 157 273 310 320 304 287 271 40 123 41 25 25 22 24 24 26 29 33
196 194 196 192 190 183 177 180 179 186 187 186 182 157 122 81 89 102 115 127 151 165 166 171 185 231 239 263 296 318 319 341 277 255 220 26 13 4 9 17 13 21 22
194 192 194 192 190 184 188 187 197 198 191 173 171 157 159 132 102 100 113 136 168 193 192 185 217 256 278 290 283 295 313 283 266 268 271 292 323 341 359 359 6 18 20
190 187 188 190 189 185 189 192 198 195 188 180 181 174 180 160 148 122 167 176 223 225 200 205 186 173 319 321 308 287 275 272 271 270 279 284 296 310 326 348 342 11 14
Height
1528 1527 1525 1525 1524 1524 1524 1523 1523 1523 1522 1522 1522 1522 1521 1521 1521 1521 1521 1521 1521 1521 1521 1521 1521 1521 1521 1521 1522 1522 1522 1522 1523 1523 1523 1524 1524 1524 1525 1525 1526 1527 1526
1529 1528 1526 1526 1526 1525 1525 1525 1524 1524 1524 1524 1524 1523 1523 1523 1523 1523 1523 1523 1523 1523 1523 1523 1522 1522 1522 1523 1523 1523 1523 1524 1524 1524 1524 1525 1525 1525 1525 1526 1526 1527 1527
1529 1529 1528 1527 1527 1526 1526 1526 1526 1526 1526 1525 1525 1525 1525 1525 1524 1524 1524 1524 1524 1524 1524 1524 1523 1522 1523 1524 1524 1524 1525 1525 1525 1526 1526 1526 1526 1526 1526 1526 1527 1527 1528
1530 1530 1529 1528 1528 1528 1528 1527 1527 1527 1527 1527 1527 1527 1527 1526 1526 1526 1526 1525 1525 1525 1525 1525 1522 1522 1524 1524 1525 1525 1526 1526 1526 1526 1528 1527 1527 1526 1526 1527 1527 1528 1528
1531 1531 1530 1529 1529 1529 1529 1529 1529 1529 1529 1529 1528 1528 1528 1528 1528 1527 1527 1527 1527 1527 1526 1526 1525 1524 1525 1526 1526 1527 1527 1527 1527 1527 1528 1527 1527 1526 1527 1527 1528 1528 1529
1532 1532 1531 1531 1531 1530 1530 1530 1530 1530 1530 1530 1530 1530 1530 1529 1529 1529 1529 1528 1528 1528 1528 1527 1527 1526 1527 1527 1528 1528 1528 1528 1528 1528 1528 1528 1527 1526 1527 1527 1528 1529 1529
1534 1533 1533 1532 1532 1532 1532 1531 1531 1531 1531 1531 1531 1531 1531 1531 1531 1530 1530 1530 1530 1529 1529 1529 1529 1529 1529 1529 1529 1529 1529 1529 1529 1529 1529 1528 1528 1527 1528 1528 1528 1529 1530
1535 1535 1534 1533 1533 1533 1533 1533 1533 1532 1532 1532 1532 1532 1532 1532 1532 1532 1531 1531 1531 1531 1530 1530 1530 1530 1530 1530 1530 1530 1530 1530 1530 1530 1529 1529 1528 1528 1528 1529 1529 1529 1530
1536 1536 1536 1536 1535 1535 1534 1534 1534 1534 1534 1534 1533 1533 1533 1533 1533 1533 1532 1532 1532 1532 1532 1531 1531 1531 1531 1531 1531 1531 1530 1530 1530 1530 1530 1530 1529 1529 1529 1529 1529 1529 1530
1537 1537 1537 1537 1537 1537 1537 1536 1535 1535 1535 1535 1535 1534 1534 1534 1534 1534 1534 1533 1533 1533 1533 1533 1533 1532 1532 1532 1532 1532 1531 1531 1531 1531 1531 1530 1529 1529 1529 1529 1529 1530 1530
1538 1538 1538 1538 1538 1539 1538 1537 1537 1537 1536 1536 1536 1536 1536 1536 1536 1535 1535 1534 1534 1534 1534 1534 1534 1533 1533 1533 1533 1533 1532 1532 1531 1531 1531 1530 1530 1530 1530 1530 1530 1530 1531
1539 1539 1539 1539 1539 1539 1539 1539 1539 1539 1538 1538 1538 1537 1537 1537 1536 1536 1535 1535 1535 1535 1534 1534 1534 1535 1535 1535 1534 1534 1534 1534 1533 1532 1531 1530 1530 1530 1530 1530 1530 1531 1531
1539 1539 1540 1540 1540 1540 1540 1540 1540 1540 1539 1539 1539 1538 1538 1538 1537 1537 1537 1536 1536 1536 1536 1535 1536 1536 1536 1536 1536 1536 1535 1535 1534 1533 1532 1531 1531 1531 1531 1531 1531 1532 1532
1539 1540 1540 1540 1541 1541 1541 1541 1540 1541 1540 1540 1540 1540 1539 1539 1538 1538 1537 1537 1537 1536 1536 1537 1536 1537 1537 1537 1537 1536 1536 1536 1535 1534 1533 1532 1532 1532 1532 1532 1532 1532 1532
1539 1540 1540 1540 1541 1541 1541 1541 1541 1541 1541 1541 1540 1540 1540 1540 1539 1539 1538 1537 1538 1537 1537 1537 1537 1537 1537 1537 1537 1537 1537 1536 1536 1535 1535 1534 1533 1533 1532 1532 1532 1532 1532
1539 1540 1540 1541 1541 1541 1541 1542 1542 1542 1541 1541 1541 1541 1541 1540 1540 1539 1539 1538 1538 1538 1538 1538 1538 1537 1537 1537 1537 1537 1537 1537 1537 1536 1536 1535 1534 1534 1533 1533 1533 1533 1533
1539 1540 1540 1541 1541 1541 1542 1542 1542 1542 1542 1542 1541 1541 1541 1541 1540 1540 1540 1539 1539 1538 1538 1538 1538 1538 1538 1538 1538 1537 1537 1537 1537 1537 1536 1536 1536 1535 1534 1534 1534 1533 1533
1538 1539 1540 1540 1541 1541 1541 1541 1542 1542 1542 1542 1542 1541 1541 1541 1541 1540 1540 1539 1539 1539 1538 1538 1538 1538 1538 1538 1538 1538 1538 1537 1537 1537 1537 1536 1536 1536 1535 1534 1534 1533 1533
1537 1539 1539 1540 1540 1541 1541 1541 1541 1542 1542 1542 1541 1541 1541 1541 1541 1540 1540 1539 1539 1539 1539 1539 1538 1538 1538 1538 1538 1538 1538 1537 1537 1537 1537 1537 1536 1535 1535 1534 1534 1533 1533
1536 1537 1538 1539 1540 1540 1540 1541 1541 1541 1541 1541 1541 1541 1541 1540 1540 1540 1539 1539 1539 1538 1538 1538 1538 1538 1538 1538 1538 1538 1538 1538 1538 1537 1537 1537 1536 1535 1535 1534 1534 1534 1533
1534 1536 1537 1538 1539 1539 1540 1540 1540 1541 1541 1541 1540 1540 1540 1540 1539 1539 1539 1539 1538 1538 1538 1537 1537 1537 1537 1538 1538 1538 1538 1538 1538 1537 1537 1537 1536 1535 1535 1534 1534 1533 1533
1532 1534 1536 1537 1538 1538 1539 1540 1540 1540 1540 1540 1539 1539 1539 1539 1539 1538 1538 1538 1537 1537 1537 1537 1536 1537 1537 1537 1538 1538 1538 1539 1538 1537 1537 1536 1536 1535 1535 1534 1534 1533 1533
1530 1532 1534 1535 1536 1537 1538 1538 1538 1538 1538 1539 1538 1538 1538 1538 1538 1537 1537 1537 1537 1537 1536 1536 1536 1536 1536 1537 1537 1538 1538 1538 1538 1538 1537 1536 1535 1535 1534 1534 1534 1533 1533
1528 1530 1531 1533 1534 1535 1536 1536 1537 1537 1537 1537 1537 1537 1537 1537 1537 1536 1536 1536 1536 1536 1535 1535 1535 1536 1536 1536 1536 1536 1538 1537 1538 1537 1537 1536 1535 1535 1534 1534 1533 1533 1532
1525 1527 1529 1531 1532 1533 1534 1534 1535 1536 1536 1536 1536 1536 1536 1536 1535 1535 1535 1535 1535 1535 1535 1534 1534 1535 1535 1535 1536 1535 1535 1535 1536 1536 1536 1536 1535 1534 1533 1533 1533 1532 1531
1522 1524 1526 1528 1529 1531 1532 1533 1533 1534 1534 1534 1534 1534 1534 1534 1534 1534 1533 1534 1534 1534 1533 1533 1533 1534 1534 1534 1534 1534 1534 1535 1535 1535 1534 1534 1534 1533 1532 1532 1531 1531 1530